FREGAT DEB, 45648

Orbit data source: Space-Track

FREGAT DEB, 45648 is space debris in LEO originally from a launch on Mon, 18 Jul 2011 UTC launched from the Tyuratam Missile And Space Complex (TTMTR). Debris objects in space refer to the collection of defunct objects orbiting the Earth. Examples of debris include non-operational satellites, rocket bodies, and fragments generated from explosions, collisions, or faulty payload assembly.

Loading next visibility...
Identifier
45648, 2011-037AQ
Orbit
LEO
Country
Flag of CISCIS
Related business
Manufacturer
Lavochkin
Mission
Spacecraft
Bus & Motor
Unknown
Mass
Unknown
Launch date (UTC)
2011-07-18 (15 years ago)
Launch vehicle
Unknown
Launch site
Tyuratam Missile And Space Complex (TTMTR)
Object type
Payload
Rocket body
Debris
Shape & HBR
Unknown shape, 0.1 m
Radar Cross Section
Small (<0.1 m²)

Expand to show TLE details & history
Last TLE update: 9 hours ago

TLE from 9 hours ago
0 FREGAT DEB
1 45648U 11037AQ  26034.61899197  .00137159  00000-0  61107-2 0  9997
2 45648  51.3971   2.9218 0935004   9.5894 352.1563 13.61322450251788
Epoch: 2026-02-03T14:51Z
TLE epoch observation values (Epoch: 2026-02-03T14:51:20.906Z)
Latitude
-0.00002°
Longitude
6.28735°
Altitude
346.693 km
Speed
8.05 km/s
True Right ascension
00h 11m 41s
True Declination
0° 00' 00"
Sunlit
Object was in daylight at epoch
Visualization orbit readout
Latitude
Unknown
Longitude
Unknown
Altitude
Unknown
Speed
Unknown
Apparent Right ascension
Unknown
Apparent Declination
Unknown
Sunlit
N/A
Visualization observer readout
Local Sidereal Time
01:29:18
Azimuth
Unknown
Elevation
Unknown
Doppler factor
Unknown
Orbital elements
Apogee altitude
1,724.195 km
Perigee altitude
338.605 km
Semi-major axis
7,409.537 km
Eccentricity
0.0935
Inclination
51.3971°
RAAN
2.9218°
Arg. of periapsis
9.5894°
True anomaly
350.50403°
Mean anomaly
352.1563°
Eccentric anomaly
351.35065°
Mean motion
3.40296 °/min
Orbital period
105.79 mins
BSTAR
0.0061107
Loading maneuver chart data...
Computing Atmospheric mass density...
Loading historical data...
Loading historical data...
Loading historical data...
Loading historical data...
Loading historical data...
Loading historical data...
Loading historical data...

Documentation

Showing up to 5 results
|